Weather in Pacha

Russia / Kemerovo Oblast     55°42′18″N   85°29′41″E
temp.,
°C
wind,
m/s
gust,
m/s
humid.,
%
clouds,
%
prec.,
mm/h
press.,
hPa
HPBL,
m
3 august, tue
tue301:00+14sse1296100 1.7 100531
04:00+14ssw119622 1.9 100515
07:00+15s249714 1.9 1005128
10:00+19ssw238393 0.0 1006493
13:00+23wsw346484 0.1 10051297
16:00+24w456050 0.3 10051456
19:00+20w25865 2.4 1006243
22:00+16wnw119260 0.4 100711
4 august, wed
wed401:00+15sse119199 0.4 100711
04:00+14ssw1193100 0.1 100712
07:00+15wsw1192100 0.1 100725
10:00+18w1281100 0.0 1008388
13:00+21w237028 1.8 1007804
16:00+23wnw2258100 0.8 10061380
19:00+19wnw248430 1.8 1006144
22:00+15nnw1191100 0.6 100611
5 august, thu
thu501:00+14nw119266 0.6 100611
04:00+13w119413 0.0 100612
07:00+14w139599 0.0 100696
10:00+18w248283 0.0 1006534
13:00+21wnw347284 1.1 10051123
16:00+22wnw456927 1.6 10041239
19:00+20nw34765 2.3 1004663
22:00+15nne119319 0.4 100511
6 august, fri
fri601:00+14s119449 0.8 100511
04:00+13ese119431 0.0 100511
07:00+14ese12945 0.0 100660
10:00+19s23775 0.0 1006465
13:00+22s236881 1.1 10061003
16:00+24ssw235710 0.5 10061421
19:00+21ssw227794 1.1 1007132
22:00+17sse0087100 0.6 100811
7 august, sat
sat701:00+15s119197 0.8 100811
04:00+14se119397 0.0 100811
07:00+15ssw1194100 0.0 100932
10:00+19sse1180100 0.0 1009349
13:00+23sw2162100 0.0 1008985
16:00+24wnw215995 0.3 10081325
19:00+21ne1280100 0.9 100874
22:00+17se118982 0.2 100811